Location: Bemmer
(51.5498°N, 5.6249°E)
Time: 12:46:42
(UTC+00:00)

Cosmos 1898 Rocket - Pass Details

Date: 03 March 2021
Orbit: 753 x 784 km, 74.0° (Epoch: 16 April)

Event Time Altitude Azimuth Distance (km) Brightness Sun altitude
Rises 19:50:49 0° 337° (NNW) 3,228 7.4 -23.6°
Reaches altitude 10° 19:53:17 10° 344° (NNW) 2,302 6.4 -24.0°
Enters shadow 19:57:52 45° 42° (NE) 1,040 4.0 -24.7°
